Regional Weather Roundup
Issued by NWS Mt. Holly, NJ

Home | Current Version | Previous Version | Text Only | Print | Product List | Glossary On
Versions: 1 2 3 4 5 6 7 8 9 10 11 12 13 14 15 16 17 18 19 20 21 22 23 24 25 26 27 28 29 30 31 32 33 34 35 36 37 38 39 40 41 42 43 44 45 46 47 48 49 50
000
ASUS41 KPHI 301910
RWRPHI

REGIONAL WEATHER ROUNDUP
NATIONAL WEATHER SERVICE MOUNT HOLLY NJ
200 PM EST FRI JAN 30 2015

NOTE:  "FAIR" INDICATES FEW OR NO CLOUDS BELOW 12,000 FEET WITH NO
SIGNIFICANT WEATHER AND/OR OBSTRUCTIONS TO VISIBILITY.

 * = STATION DOES NOT REPORT PRECIPITATION (E.G. RAIN, SNOW, ETC.)
        OR FOG.

NJZ015>026-302000-
SOUTHERN NEW JERSEY

CITY           SKY/WX    TMP DP  RH WIND       PRES   REMARKS
POMONA         PTSUNNY   40  21  46 NW22G31   29.87S WCI  30
RIO GRANDE*    PTSUNNY   39  23  52 NW10G20   29.89S WCI  32
MILLVILLE      CLOUDY    40  19  43 NW15G25   29.90S WCI  32
WRIGHTSTOWN    CLOUDY    38  22  52 NW15G23   29.85S WCI  29
MOUNT HOLLY    CLOUDY    38  20  48 NW16      29.89S WCI  29
TRENTON        CLOUDY    37  20  50 NW16G24   29.86S WCI  28

$$
NJZ001>014-302000-
NORTHERN NEW JERSEY

CITY           SKY/WX    TMP DP  RH WIND       PRES   REMARKS
SUSSEX         LGT RAIN  34  16  47 NW14G22   29.84F WCI  25
ANDOVER*         N/A     33  16  49 N13G24    29.85S WCI  24
MORRISTOWN     PTSUNNY   37  19  48 N15G29    29.85F WCI  28
NEWARK         PTSUNNY   37  22  54 NW16G24   29.83F WCI  28
TETERBORO      CLOUDY    37  20  50 NW17G24   29.82F WCI  27
CALDWELL       PTSUNNY   36  17  46 N14G23    29.84F WCI  27
SOMERVILLE     PTSUNNY   37  24  59 NW9G22    29.85S WCI  30
ALLAIRE*       CLOUDY    37  21  52 NW21G28   29.83F WCI  27
TOMS RIVER*    CLOUDY    37  21  52 NW18G28   29.85F WCI  27

$$
PAZ043-044-047-054-055-060>062-066>071-302000-
EASTERN PENNSYLVANIA

CITY           SKY/WX    TMP DP  RH WIND       PRES   REMARKS
PHILADELPHIA   PTSUNNY   40  17  39 NW23G36   29.91S WCI  30
NORTH PHILA    CLOUDY    40  19  43 NW18G29   29.90F WCI  31
BLUE BELL      MOSUNNY   37  21  52 NW13G21   29.89S WCI  29
DOYLESTOWN     CLOUDY    36  20  52 NW17G24   29.88S WCI  26
QUAKERTOWN*    PTSUNNY   36  19  51 NW12G25   29.90S WCI  27
POTTSTOWN      PTSUNNY   37  17  44 NW17G25   29.92R WCI  27
LANCASTER      CLOUDY    32  20  61 NW25G32   29.96R WCI  19
COATESVILLE    LGT SNOW  32  30  93 NW17      29.93R VSB 3/4 WCI  21
READING        PTSUNNY   35  23  61 NW17      29.94R WCI  25
ALLENTOWN      PTSUNNY   35  19  52 NW12G21   29.90S WCI  27
MOUNT POCONO   LGT SNOW  25  18  74 NW20G30   29.80R VSB 1   WCI  11
HAZLETON       PTSUNNY   30  19  64 NW18G29   29.88S WCI  18
WILKES BARRE   LGT SNOW  30  21  69 NW14G24   29.90R WCI  19

$$
DEZALL-MDZ008-012-015-019-020-302000-
DELAWARE AND EASTERN MARYLAND

CITY           SKY/WX    TMP DP  RH WIND       PRES   REMARKS
WILMINGTON     PTSUNNY   41  20  43 NW28G36   29.94S
DOVER          PTSUNNY   41  21  45 NW25G35   29.92F
GEORGETOWN     CLOUDY    43  20  39 W14G29    29.92F
EASTON         CLOUDY    41  23  48 NW18G31   30.01R
PATUXENT       PTSUNNY   42  14  32 NW25G32   30.00F
OCEAN CITY     CLOUDY    41  20  43 NW14G28   29.92S
WALLOPS ISLAND PTSUNNY   43  23  45 NW21G35   29.94S
CAMBRIDGE      MOSUNNY   41  23  48 W17G35    29.97S
SALISBURY      CLOUDY    43  17  35 NW20G28   29.93S

$$
PAZ001-021-NYZ056-072-MDZ011-DCZ001-302000-
OTHER NEARBY LOCATIONS

CITY           SKY/WX    TMP DP  RH WIND       PRES   REMARKS
HARRISBURG     CLOUDY    32  18  56 NW22G29   30.00R WCI  19
STATE COLLEGE  LGT SNOW  25  14  63 W22G29    30.04R WCI  10
WILLIAMSPORT   FLURRIES  31  24  75 W14       29.98R WCI  21
BINGHAMTON     LGT SNOW  21  12  68 NW21G30   29.90R WCI   5
NEW YORK CITY  CLOUDY    37  20  50 NW13G26   29.84F WCI  29
BALTIMORE      PTSUNNY   38  19  46 W24G40    30.00S WCI  27
WASHINGTON DC  PTSUNNY   42  14  32 NW26G40   30.05R

$$


USA.gov is the U.S. government's official web portal to all federal, state and local government web resources and services.